Location: Unspecified
(40.5158°N, 0.0000°E)
Time: 19:07:11
(UTC+00:00)

Envisat - Visible Passes

Search period start: 21 May 2019 00:00
Search period end: 31 May 2019 00:00
Orbit: 764 x 766 km, 98.2° (Epoch: 21 May)

Date Brightness Start Highest point End Pass type
(mag) Time Alt. Az. Time Alt. Az. Time Alt. Az.
21 May 5.8 19:53:48 10° WSW 19:56:27 14° W 19:59:07 10° WNW visible
24 May 5.7 19:41:40 10° SW 19:45:06 18° W 19:48:34 10° NW visible
29 May 5.9 19:57:20 10° WSW 19:59:34 13° W 20:01:48 10° WNW visible
